Location: Forestville
(38.4740°N, 122.8890°W)
Time: 19:00:24
(UTC-07:00)

Amateur Radio Satellites - All Passes

Search period start: 27 May 2015 18:30
Search period end: 28 May 2015 18:30
Location: Forestville, 38.4740°N, 122.8890°W

Satellite Date Start Highest point End Downlink Frequencies (MHz)
Time Altitude Azimuth
Cubesat XI-IV 27 May 18:47:49 18:53:08 84° 257° (WSW) 18:58:30 437.490
RS-15 27 May 18:52:02 19:03:47 87° 239° (WSW) 19:15:58 29.354- 29.394
AIST 2 27 May 18:54:34 18:58:37 44° 116° (ESE) 19:02:43 435.215
PRISM 27 May 18:59:40 19:01:20 12° 91° (E) 19:03:15 437.425
BEESAT 2 27 May 18:59:43 19:03:39 43° 306° (NW) 19:07:37 435.950
CUBESAT XI-V 27 May 19:31:38 19:36:21 77° 102° (ESE) 19:41:04 437.345
STRAND 1 27 May 19:32:28 19:36:55 30° 95° (E) 19:41:28 437.568
HO-68 27 May 19:35:32 19:40:37 22° 60° (ENE) 19:45:56 435.675
DOVE 4 27 May 19:39:22 19:41:05 12° 62° (ENE) 19:43:06 437.250
BEESAT 3 27 May 19:50:02 19:52:09 13° 317° (NW) 19:54:08 437.485
CANX-2 27 May 19:51:10 19:52:44 12° 66° (ENE) 19:54:30 2200.000
CUTE 1.7 + AOD 2 27 May 19:54:40 19:56:09 12° 66° (ENE) 19:57:51 437.475
AIST 1 27 May 20:05:23 20:07:49 15° 88° (E) 20:10:26
CUTE-I 27 May 20:09:47 20:12:54 15° 271° (W) 20:15:44 437.470
SEEDS 27 May 20:14:43 20:17:17 16° 68° (ENE) 20:20:00 437.485
GOMX 1 27 May 20:16:59 20:21:45 41° 71° (ENE) 20:26:50 467.674
BRITE-PL 27 May 20:18:34 20:23:36 65° 75° (ENE) 20:29:03 437.365/2234.400
YUBILEINY 27 May 20:22:11 20:30:11 41° 272° (W) 20:38:03 435.215
Cosmos 2491 27 May 20:22:53 20:31:41 74° 280° (W) 20:40:32 435.465 / 435.565
COMPASS 1 27 May 20:26:21 20:29:05 18° 68° (ENE) 20:31:56 437.405
PRISM 27 May 20:33:06 20:37:07 48° 286° (WNW) 20:41:08 437.425
AIST 2 27 May 20:34:17 20:37:26 19° 314° (NW) 20:40:30 435.215
AAUSAT CUBESAT 2 27 May 20:37:26 20:40:25 20° 69° (ENE) 20:43:31 437.432
CINEMA 3 27 May 20:45:33 20:49:35 26° 69° (ENE) 20:53:44 145.822/145.860
M-CUBED/EXP-1 PRIME 27 May 20:49:29 20:52:47 88° 94° (E) 20:56:07 437.505
AUBIESAT-1 27 May 20:56:46 21:00:04 86° 292° (WNW) 21:03:25 437.475
DELFI C3 27 May 21:00:39 21:01:42 11° 66° (ENE) 21:02:59 145.870
Cosmos 2504 27 May 21:01:07 21:07:38 37° 74° (ENE) 21:14:15 435.465 / 435.565
RS-15 27 May 21:06:49 21:15:01 21° 258° (WSW) 21:22:35 29.354- 29.394
STRAND 1 27 May 21:11:36 21:16:06 30° 291° (WNW) 21:20:30 437.568
CUBESAT XI-V 27 May 21:11:52 21:13:13 11° 296° (WNW) 21:14:18 437.345
DOVE 4 27 May 21:12:59 21:18:06 87° 258° (WSW) 21:23:27 437.250
HO-68 27 May 21:20:34 21:27:45 72° 257° (WSW) 21:34:57 435.675
CANX-2 27 May 21:24:02 21:28:13 57° 260° (W) 21:32:25 2200.000
CUTE 1.7 + AOD 2 27 May 21:27:26 21:31:38 58° 260° (W) 21:35:50 437.475
ZACube-1 27 May 21:29:09 21:32:36 22° 69° (ENE) 21:36:08 437.345
CUBEBUG 2 27 May 21:30:37 21:34:56 36° 72° (ENE) 21:39:19 437.445
Oscar 11 27 May 21:38:45 21:42:53 46° 74° (ENE) 21:47:03 145.826/435.025
DX 1 27 May 21:40:40 21:42:47 14° 65° (ENE) 21:45:07 434.975-435.025
AIST 1 27 May 21:41:13 21:45:11 37° 283° (WNW) 21:49:09
SEEDS 27 May 21:48:50 21:52:49 39° 262° (W) 21:56:47 437.485
GOMX 1 27 May 21:55:56 22:00:04 23° 269° (W) 22:04:14 467.674
VELOX 1 27 May 21:59:46 22:00:41 11° 64° (ENE) 22:01:52 145.980
BRITE-PL 27 May 21:59:55 22:02:46 14° 274° (W) 22:05:26 437.365/2234.400
COMPASS 1 27 May 22:00:39 22:04:31 35° 263° (W) 22:08:22 437.405
50 SAT 27 May 22:01:46 22:02:22 10° 66° (ENE) 22:03:12 437.505
AAUSAT CUBESAT 2 27 May 22:12:08 22:15:52 30° 264° (W) 22:19:33 437.432
UWE-3 27 May 22:15:32 22:20:14 87° 72° (ENE) 22:24:56 435.000/436.395/437.385
CINEMA 3 27 May 22:22:03 22:26:37 35° 265° (W) 22:31:11 145.822/145.860
FUNcube-1 27 May 22:23:03 22:27:39 81° 77° (ENE) 22:32:15 145.935
ISS 27 May 22:24:50 22:26:43 15° 130° (SE) 22:28:42 145.825
Cosmos 2491 27 May 22:26:06 22:30:30 14° 302° (WNW) 22:34:15 435.465 / 435.565
AISAT 27 May 22:28:56 22:32:27 24° 69° (ENE) 22:36:03 437.250
DELFI C3 27 May 22:32:26 22:36:24 55° 260° (W) 22:40:22 145.870
HUMSAT D 27 May 22:50:13 22:54:32 75° 76° (ENE) 22:58:51 437.325/437.525
Cosmos 2504 27 May 22:54:34 23:00:59 35° 272° (W) 23:07:19 435.465 / 435.565
GONETS M04 27 May 22:56:36 23:00:16 14° 58° (ENE) 23:04:35
DANDE 27 May 22:58:28 23:01:48 14° 54° (NE) 23:05:18 436.750
TIGRISAT 27 May 22:59:57 23:03:10 21° 93° (E) 23:06:27 435.000
UKube-1 27 May 23:04:02 23:08:20 75° 257° (WSW) 23:12:42 .
ZACube-1 27 May 23:04:33 23:08:45 34° 263° (W) 23:12:56 437.345
CUBEBUG 2 27 May 23:07:58 23:11:43 22° 267° (W) 23:15:22 437.445
QB50P1 27 May 23:11:34 23:13:11 12° 89° (E) 23:15:01 145.935-145.965
POLYITAN 1 27 May 23:13:50 23:15:48 13° 90° (E) 23:17:59 437.675
DX 1 27 May 23:14:23 23:18:39 52° 260° (W) 23:22:56 434.975-435.025
Oscar 11 27 May 23:16:58 23:19:22 14° 270° (W) 23:21:35 145.826/435.025
UNISAT 6 27 May 23:20:15 23:24:16 36° 97° (E) 23:28:15 437.425
CUSAT 1 27 May 23:21:54 23:27:18 24° 63° (ENE) 23:31:58 437.405
CUBEBUG 1 27 May 23:27:45 23:31:56 49° 74° (ENE) 23:36:12 437.445
VELOX 1 27 May 23:32:17 23:36:43 71° 258° (WSW) 23:41:10 145.980
50 SAT 27 May 23:32:41 23:36:39 59° 260° (W) 23:40:36 437.505
ESTCUBE 1 27 May 23:39:08 23:43:36 78° 78° (ENE) 23:48:06 437.505/2401.250
NANOSAT C BR1 27 May 23:40:54 23:44:30 27° 95° (E) 23:48:09 145.865
QB50P2 27 May 23:49:28 23:53:23 35° 97° (E) 23:57:18 145.880/145.840
ISS 27 May 23:59:43 00:02:53 49° 325° (NW) 00:06:03 145.825
POPSAT HIP 1 28 May 00:01:20 00:05:28 46° 99° (E) 00:09:34 437.405
DUCHIFAT 1 28 May 00:02:23 00:06:30 46° 99° (E) 00:10:36 145.980
SPROUT 28 May 00:02:57 00:06:46 32° 71° (ENE) 00:10:39 437.525
ANTELSAT 28 May 00:03:23 00:07:45 70° 285° (WNW) 00:12:00 437.575/2403.000
AISAT 28 May 00:04:58 00:08:54 30° 264° (W) 00:12:48 437.250
PCSat 28 May 00:07:43 00:11:44 22° 108° (ESE) 00:15:56 145.827
BUGSAT 1 28 May 00:20:41 00:24:52 52° 100° (E) 00:29:01 437.445
TISAT 1 28 May 00:21:59 00:25:53 38° 72° (ENE) 00:29:52 437.305
TIGRISAT 28 May 00:36:08 00:40:01 31° 289° (WNW) 00:43:45 435.000
DANDE 28 May 00:39:10 00:46:56 78° 79° (E) 00:52:55 436.750
QB50P1 28 May 00:45:15 00:49:26 51° 286° (WNW) 00:53:34 145.935-145.965
POLYITAN 1 28 May 00:47:55 00:52:02 47° 287° (WNW) 00:56:07 437.675
GONETS M04 28 May 00:50:16 00:59:04 74° 80° (E) 01:07:47
O/OREOS (USA 219) 28 May 00:56:54 01:00:05 19° 57° (ENE) 01:03:23 437.305
UNISAT 6 28 May 00:57:45 01:00:49 18° 292° (WNW) 01:03:43 437.425
CUSAT 1 28 May 01:03:53 01:10:39 51° 268° (W) 01:15:49 437.405
CUBEBUG 1 28 May 01:06:25 01:08:39 13° 270° (W) 01:10:42 437.445
NANOSAT C BR1 28 May 01:16:47 01:20:16 24° 290° (WNW) 01:23:37 145.865
VERMONT LUNAR 28 May 01:21:13 01:24:02 27° 152° (SSE) 01:26:51 437.305
QB50P2 28 May 01:26:00 01:29:04 19° 292° (WNW) 01:31:59 145.880/145.840
Cosmos 2499 28 May 01:27:50 01:32:46 21° 67° (ENE) 01:38:01 435.465 / 435.565
ISS 28 May 01:38:30 01:39:56 12° 344° (NNW) 01:41:19 145.825
POPSAT HIP 1 28 May 01:38:33 01:40:58 15° 294° (WNW) 01:43:14 437.405
DUCHIFAT 1 28 May 01:39:33 01:41:57 14° 294° (WNW) 01:44:11 145.980
SPROUT 28 May 01:39:40 01:42:56 20° 267° (W) 01:46:06 437.525
ITUPSAT 1 28 May 01:44:26 01:48:59 48° 72° (ENE) 01:53:35 437.325
PCSat 28 May 01:49:40 01:54:52 47° 303° (WNW) 02:00:06 145.827
BEESAT 28 May 01:51:16 01:55:55 59° 74° (ENE) 02:00:37 436.000
BUGSAT 1 28 May 01:57:48 01:59:55 13° 294° (WNW) 02:01:51 437.445
TISAT 1 28 May 01:59:04 02:01:52 16° 268° (W) 02:04:30 437.305
SWISSCUBE 28 May 01:59:52 02:04:36 79° 76° (ENE) 02:09:22 437.505
SO-50 28 May 02:02:54 02:04:25 12° 108° (ESE) 02:06:13 436.795
PHONESAT 2.4 28 May 02:03:54 02:06:19 18° 148° (SSE) 02:08:47 2401.200-2431.200
DANDE 28 May 02:24:28 02:28:58 17° 280° (W) 02:32:36 436.750
Oscar 19 28 May 02:27:25 02:32:29 55° 100° (E) 02:37:32 437.125/150
BEESAT 3 28 May 02:30:02 02:33:30 26° 50° (NE) 02:36:56 437.485
O/OREOS (USA 219) 28 May 02:35:32 02:39:41 38° 254° (WSW) 02:43:48 437.305
STARS 28 May 02:39:25 02:42:35 20° 68° (ENE) 02:45:52 437.465
ITAMSAT 1 28 May 02:44:45 02:48:46 23° 93° (E) 02:52:55 435.822/435.867
GONETS M04 28 May 02:48:50 02:55:06 21° 278° (W) 03:00:56
VERMONT LUNAR 28 May 02:57:50 03:01:03 79° 347° (NNW) 03:04:16 437.305
KKS-1 28 May 03:13:02 03:17:31 76° 76° (ENE) 03:22:02 437.445
AIST 2 28 May 03:18:07 03:21:19 21° 47° (NE) 03:24:34 435.215
Cosmos 2499 28 May 03:19:36 03:26:33 63° 267° (W) 03:33:38 435.465 / 435.565
BEESAT 2 28 May 03:20:02 03:24:08 71° 58° (ENE) 03:28:10 435.950
ITUPSAT 1 28 May 03:24:11 03:27:12 16° 269° (W) 03:30:00 437.325
Gurwin Techsat 1B 28 May 03:28:37 03:33:53 58° 100° (E) 03:39:07 435.225
BEESAT 28 May 03:31:53 03:34:13 13° 270° (W) 03:36:19 436.000
SO-50 28 May 03:39:43 03:44:22 72° 303° (WNW) 03:49:13 436.795
PHONESAT 2.4 28 May 03:40:38 03:44:06 74° 162° (SSE) 03:47:35 2401.200-2431.200
HORYU 2 28 May 03:59:53 04:02:46 17° 92° (E) 04:05:48 437.375
AO-7 28 May 04:04:57 04:11:13 24° 92° (E) 04:17:48 29.400- 29.500
BEESAT 3 28 May 04:07:59 04:11:25 26° 247° (WSW) 04:14:45 437.485
Oscar 19 28 May 04:08:03 04:11:26 17° 295° (WNW) 04:14:38 437.125/150
STARS 28 May 04:14:43 04:18:49 36° 263° (W) 04:22:54 437.465
ITAMSAT 1 28 May 04:23:34 04:28:27 40° 289° (WNW) 04:33:17 435.822/435.867
VERMONT LUNAR 28 May 04:35:13 04:38:24 58° 4° (N) 04:41:34 437.305
MOZHAYETS 4 28 May 04:51:02 04:55:34 65° 75° (ENE) 05:00:07
JAS-2 28 May 04:52:06 04:57:14 61° 101° (E) 05:02:36 435.910
ISS 28 May 04:52:44 04:55:02 18° 23° (NNE) 04:57:22 145.825
AIST 2 28 May 04:56:09 05:00:03 37° 245° (WSW) 05:03:51 435.215
Gurwin Techsat 1B 28 May 05:09:56 05:13:26 18° 295° (WNW) 05:16:44 435.225
PHONESAT 2.4 28 May 05:18:52 05:22:19 59° 358° (N) 05:25:45 2401.200-2431.200
SO-50 28 May 05:24:07 05:25:54 12° 323° (NW) 05:27:29 436.795
HORYU 2 28 May 05:35:29 05:39:36 38° 288° (WNW) 05:43:41 437.375
AO-7 28 May 05:56:26 06:04:45 70° 291° (WNW) 06:13:02 29.400- 29.500
VERMONT LUNAR 28 May 06:12:28 06:15:38 60° 200° (SSW) 06:18:47 437.305
ISS 28 May 06:28:31 06:31:46 70° 221° (SW) 06:35:00 145.825
MOZHAYETS 4 28 May 06:31:59 06:33:19 11° 272° (W) 06:34:20
CUBESAT XI-V 28 May 06:33:27 06:37:59 62° 75° (ENE) 06:42:34 437.345
Cosmos 2491 28 May 06:35:15 06:43:49 53° 77° (ENE) 06:52:22 435.465 / 435.565
JAS-2 28 May 06:39:01 06:42:00 15° 296° (WNW) 06:44:47 435.910
CUTE-I 28 May 06:46:06 06:50:37 28° 95° (E) 06:55:13 437.470
STRAND 1 28 May 06:46:56 06:51:33 37° 71° (ENE) 06:56:16 437.568
PHONESAT 2.4 28 May 06:57:05 07:00:33 88° 211° (SSW) 07:04:02 2401.200-2431.200
Cubesat XI-IV 28 May 07:06:43 07:11:49 44° 98° (E) 07:16:57 437.490
RS-15 28 May 07:09:19 07:13:20 13° 99° (E) 07:18:26 29.354- 29.394
PRISM 28 May 07:21:25 07:25:30 82° 257° (WSW) 07:29:37 437.425
YUBILEINY 28 May 07:24:08 07:32:22 49° 90° (E) 07:40:41 435.215
M-CUBED/EXP-1 PRIME 28 May 07:35:53 07:40:09 87° 251° (WSW) 07:44:04 437.505
AUBIESAT-1 28 May 07:42:44 07:46:56 84° 250° (WSW) 07:50:50 437.475
AIST 1 28 May 07:49:26 07:53:38 42° 79° (E) 07:57:49
VERMONT LUNAR 28 May 07:50:54 07:52:25 13° 214° (SW) 07:53:52 437.305
AO-7 28 May 07:51:46 07:56:14 15° 309° (NW) 08:00:17 29.400- 29.500
CUBESAT XI-V 28 May 08:14:15 08:15:56 11° 272° (W) 08:17:20 437.345
GOMX 1 28 May 08:22:19 08:24:59 14° 87° (E) 08:27:51 467.674
BRITE-PL 28 May 08:25:43 08:30:21 27° 92° (E) 08:34:53 437.365/2234.400
CUTE-I 28 May 08:25:53 08:30:45 35° 291° (WNW) 08:35:33 437.470
STRAND 1 28 May 08:26:48 08:30:53 24° 266° (W) 08:34:53 437.568
Cosmos 2491 28 May 08:32:47 08:40:20 32° 274° (W) 08:47:36 435.465 / 435.565
PHONESAT 2.4 28 May 08:35:36 08:38:26 23° 210° (SSW) 08:41:13 2401.200-2431.200
Cubesat XI-IV 28 May 08:47:29 08:51:40 23° 294° (WNW) 08:55:44 437.490
HO-68 28 May 08:50:52 08:56:19 24° 92° (E) 09:01:59 435.675
PCSat 28 May 08:56:47 09:00:00 16° 44° (NE) 09:03:24 145.827
CANX-2 28 May 09:11:12 09:14:43 26° 95° (E) 09:18:16 2200.000
RS-15 28 May 09:13:15 09:24:01 73° 116° (ESE) 09:35:06 29.354- 29.394
CUTE 1.7 + AOD 2 28 May 09:14:32 09:18:01 25° 95° (E) 09:21:34 437.475
DOVE 4 28 May 09:14:37 09:19:02 30° 94° (E) 09:23:17 437.250
YUBILEINY 28 May 09:21:37 09:29:29 35° 289° (WNW) 09:37:11 435.215
AIST 1 28 May 09:28:28 09:30:56 14° 273° (W) 09:33:12
SEEDS 28 May 09:34:31 09:38:21 35° 97° (E) 09:42:12 437.485
Cosmos 2504 28 May 09:37:14 09:44:26 35° 89° (E) 09:51:23 435.465 / 435.565
COMPASS 1 28 May 09:45:18 09:49:10 37° 97° (E) 09:53:02 437.405
AAUSAT CUBESAT 2 28 May 09:56:04 10:00:01 42° 98° (E) 10:03:57 437.432
TIGRISAT 28 May 09:57:35 10:00:40 18° 68° (ENE) 10:03:52 435.000
GOMX 1 28 May 09:58:24 10:03:43 63° 286° (WNW) 10:08:41 467.674
BRITE-PL 28 May 10:03:45 10:08:58 38° 290° (WNW) 10:13:52 437.365/2234.400
UWE-3 28 May 10:08:20 10:11:20 19° 92° (E) 10:14:25 435.000/436.395/437.385
DELFI C3 28 May 10:13:46 10:16:46 21° 94° (E) 10:19:52 145.870
FUNcube-1 28 May 10:14:30 10:17:08 16° 91° (E) 10:19:54 145.935
UNISAT 6 28 May 10:17:39 10:21:41 30° 71° (ENE) 10:25:44 437.425
CINEMA 3 28 May 10:18:28 10:23:09 67° 100° (E) 10:27:35 145.822/145.860
NANOSAT C BR1 28 May 10:32:45 10:35:34 18° 68° (ENE) 10:38:33 145.865
SO-50 28 May 10:34:21 10:35:59 12° 37° (NE) 10:37:49 436.795
HO-68 28 May 10:37:31 10:44:32 60° 290° (WNW) 10:51:30 435.675
HUMSAT D 28 May 10:37:44 10:39:33 13° 90° (E) 10:41:35 437.325/437.525
PCSat 28 May 10:38:44 10:44:10 81° 244° (WSW) 10:49:35 145.827
QB50P2 28 May 10:41:23 10:44:43 23° 69° (ENE) 10:48:10 145.880/145.840
CANX-2 28 May 10:47:10 10:50:34 24° 290° (WNW) 10:53:53 2200.000
CUTE 1.7 + AOD 2 28 May 10:50:26 10:53:53 24° 290° (WNW) 10:57:13 437.475
DOVE 4 28 May 10:52:23 10:56:42 28° 291° (WNW) 11:00:45 437.250
POPSAT HIP 1 28 May 10:52:50 10:56:33 30° 71° (ENE) 11:00:20 437.405
DUCHIFAT 1 28 May 10:53:29 10:57:09 29° 71° (ENE) 11:00:54 145.980
UKube-1 28 May 10:53:49 10:56:59 20° 93° (E) 11:00:15 .
ZACube-1 28 May 10:54:33 10:58:45 49° 99° (E) 11:02:50 437.345
CUBEBUG 2 28 May 10:59:41 11:04:09 86° 283° (WNW) 11:08:25 437.445
ANTELSAT 28 May 11:00:16 11:04:58 85° 77° (ENE) 11:09:38 437.575/2403.000
Oscar 11 28 May 11:03:21 11:07:38 69° 284° (WNW) 11:11:54 145.826/435.025
DX 1 28 May 11:04:26 11:08:13 29° 96° (E) 11:12:03 434.975-435.025
BUGSAT 1 28 May 11:09:30 11:13:06 30° 71° (ENE) 11:16:48 437.445
SEEDS 28 May 11:11:04 11:13:55 18° 292° (WNW) 11:16:39 437.485
50 SAT 28 May 11:11:36 11:14:05 17° 92° (E) 11:16:42 437.505
CUBEBUG 1 28 May 11:21:05 11:21:36 10° 88° (E) 11:22:26 437.445
COMPASS 1 28 May 11:21:53 11:24:34 16° 292° (WNW) 11:27:07 437.405
VELOX 1 28 May 11:24:50 11:28:26 24° 94° (E) 11:32:06 145.980
RS-15 28 May 11:27:41 11:37:30 35° 322° (NW) 11:47:26 29.354- 29.394
Cosmos 2504 28 May 11:29:49 11:37:43 44° 284° (WNW) 11:45:04 435.465 / 435.565
TIGRISAT 28 May 11:32:37 11:37:07 44° 262° (W) 11:41:34 435.000
AAUSAT CUBESAT 2 28 May 11:32:56 11:35:18 15° 293° (WNW) 11:37:30 437.432
ESTCUBE 1 28 May 11:34:17 11:37:21 18° 92° (E) 11:40:35 437.505/2401.250
QB50P1 28 May 11:36:03 11:40:20 86° 257° (WSW) 11:44:39 145.935-145.965
POLYITAN 1 28 May 11:38:56 11:43:14 78° 257° (WSW) 11:47:35 437.675
UWE-3 28 May 11:44:04 11:48:01 33° 289° (WNW) 11:51:50 435.000/436.395/437.385
DELFI C3 28 May 11:48:29 11:51:53 26° 289° (WNW) 11:55:14 145.870
FUNcube-1 28 May 11:49:42 11:53:42 37° 288° (WNW) 11:57:33 145.935
UNISAT 6 28 May 11:54:30 11:58:27 26° 265° (W) 12:02:17 437.425
AISAT 28 May 11:56:28 12:00:54 57° 100° (E) 12:05:19 437.250
GONETS M04 28 May 11:57:18 12:01:49 16° 79° (E) 12:06:55
CINEMA 3 28 May 11:57:53 11:59:46 12° 296° (WNW) 12:01:22 145.822/145.860
JUGNU 28 May 12:00:39 12:02:48 12° 180° (S) 12:04:58 437.505
DANDE 28 May 12:05:32 12:10:00 18° 80° (E) 12:15:17 436.750
NANOSAT C BR1 28 May 12:07:11 12:11:10 37° 263° (W) 12:15:09 145.865
HUMSAT D 28 May 12:11:39 12:15:38 44° 286° (WNW) 12:19:32 437.325/437.525
SO-50 28 May 12:12:34 12:17:32 69° 57° (ENE) 12:22:24 436.795
QB50P2 28 May 12:16:46 12:20:30 28° 265° (W) 12:24:13 145.880/145.840
CUSAT 1 28 May 12:23:34 12:29:55 33° 87° (E) 12:37:07 437.405
POPSAT HIP 1 28 May 12:29:05 12:32:28 22° 267° (W) 12:35:44 437.405
UKube-1 28 May 12:29:17 12:33:12 33° 289° (WNW) 12:37:04 .
HO-68 28 May 12:29:34 12:31:01 10° 307° (NW) 12:31:58 435.675
DUCHIFAT 1 28 May 12:29:38 12:33:00 22° 266° (W) 12:36:16 145.980
ZACube-1 28 May 12:32:29 12:34:42 14° 294° (WNW) 12:36:43 437.345
DX 1 28 May 12:40:48 12:44:22 24° 291° (WNW) 12:47:49 434.975-435.025
BUGSAT 1 28 May 12:45:28 12:48:37 20° 267° (W) 12:51:43 437.445
50 SAT 28 May 12:45:29 12:48:54 30° 288° (WNW) 12:52:15 437.505
CUBEBUG 1 28 May 12:54:03 12:58:28 65° 286° (WNW) 13:02:52 437.445
VELOX 1 28 May 13:01:06 13:04:59 29° 290° (WNW) 13:08:49 145.980
ESTCUBE 1 28 May 13:10:11 13:14:24 38° 288° (WNW) 13:18:36 437.505/2401.250
SRMSAT 28 May 13:21:05 13:23:06 12° 177° (S) 13:25:08 437.500
SPROUT 28 May 13:26:26 13:30:48 79° 102° (ESE) 13:35:06 437.525
AISAT 28 May 13:34:45 13:37:03 13° 295° (WNW) 13:39:07 437.250
Oscar 19 28 May 13:42:39 13:47:48 70° 75° (ENE) 13:53:00 437.125/150
TISAT 1 28 May 13:43:11 13:47:29 87° 102° (ESE) 13:51:44 437.305
DANDE 28 May 13:44:53 13:52:04 87° 279° (W) 14:00:37 436.750
RS-15 28 May 13:48:02 13:54:47 17° 355° (N) 14:01:35 29.354- 29.394
ITUPSAT 1 28 May 13:48:02 13:50:25 14° 90° (E) 13:53:03 437.325
GONETS M04 28 May 13:48:42 13:57:34 88° 97° (E) 14:06:28
BEESAT 28 May 13:54:08 13:57:07 17° 91° (E) 14:00:17 436.000
SO-50 28 May 13:55:05 13:57:35 13° 251° (WSW) 13:59:47 436.795
ITAMSAT 1 28 May 14:01:18 14:05:43 30° 69° (ENE) 14:10:15 435.822/435.867
SWISSCUBE 28 May 14:02:21 14:06:03 23° 94° (E) 14:09:52 437.505
Cosmos 2499 28 May 14:03:58 14:08:52 19° 84° (E) 14:13:59 435.465 / 435.565
CUSAT 1 28 May 14:05:02 14:12:17 52° 286° (WNW) 14:20:22 437.405
Gurwin Techsat 1B 28 May 14:48:12 14:53:30 80° 75° (ENE) 14:58:51 435.225
HORYU 2 28 May 14:57:33 14:59:59 15° 66° (ENE) 15:02:36 437.375
AO-7 28 May 15:02:33 15:09:24 31° 60° (ENE) 15:16:28 29.400- 29.500
JAS-2 28 May 15:03:26 15:08:24 25° 68° (ENE) 15:13:08 435.910
KKS-1 28 May 15:06:56 15:09:40 16° 91° (E) 15:12:35 437.445
O/OREOS (USA 219) 28 May 15:07:24 15:11:12 28° 104° (ESE) 15:15:04 437.305
SRMSAT 28 May 15:10:26 15:11:23 10° 187° (S) 15:12:16 437.500
ITUPSAT 1 28 May 15:24:02 15:28:44 56° 287° (WNW) 15:33:25 437.325
Oscar 19 28 May 15:25:20 15:27:45 13° 271° (W) 15:29:52 437.125/150
BEESAT 28 May 15:30:40 15:35:15 46° 288° (WNW) 15:39:48 436.000
DANDE 28 May 15:31:33 15:36:50 19° 301° (WNW) 15:42:07 436.750
SWISSCUBE 28 May 15:39:40 15:44:00 35° 289° (WNW) 15:48:18 437.505
ITAMSAT 1 28 May 15:40:39 15:45:12 30° 264° (W) 15:49:42 435.822/435.867
GONETS M04 28 May 15:49:53 15:55:50 18° 298° (WNW) 16:01:19
Cosmos 2499 28 May 15:53:16 16:01:26 75° 279° (W) 16:08:59 435.465 / 435.565
RS-15 28 May 16:03:48 16:12:51 26° 30° (NNE) 16:22:30 29.354- 29.394
STARS 28 May 16:05:35 16:09:50 45° 99° (E) 16:14:03 437.465
HORYU 2 28 May 16:31:53 16:36:15 50° 260° (W) 16:40:37 437.375
Gurwin Techsat 1B 28 May 16:32:29 16:34:13 11° 273° (W) 16:35:34 435.225
KKS-1 28 May 16:42:19 16:46:33 42° 288° (WNW) 16:50:44 437.445
O/OREOS (USA 219) 28 May 16:46:46 16:50:37 26° 300° (WNW) 16:54:21 437.305
JAS-2 28 May 16:46:48 16:53:20 50° 260° (W) 16:59:06 435.910
MOZHAYETS 4 28 May 16:48:45 16:51:39 17° 91° (E) 16:54:44
AO-7 28 May 16:53:39 17:01:48 59° 257° (WSW) 17:10:00 29.400- 29.500
BEESAT 2 28 May 17:13:23 17:16:13 19° 112° (ESE) 17:19:11 435.950
YUBILEINY 28 May 17:36:51 17:43:00 22° 65° (ENE) 17:49:31 435.215
STARS 28 May 17:43:10 17:45:57 16° 294° (WNW) 17:48:33 437.465
Cosmos 2499 28 May 17:52:52 17:56:00 12° 299° (WNW) 17:58:29 435.465 / 435.565
BEESAT 3 28 May 17:58:28 18:02:31 78° 120° (ESE) 18:06:39 437.485
CUTE-I 28 May 18:06:29 18:11:21 39° 70° (ENE) 18:16:19 437.470
